Погода в Коньяалты

Турция     36°53′24″N   30°37′52″E
темп.,
°C
ветер,
м/с
пор.,
м/с
влажн.,
%
обл.,
%
осадки,
мм/ч
давл.,
гПа
погр.,
м
7 августа, вс
вс700:00+25с22750 0.0 1003234
03:00+24с11720 0.0 1003164
06:00+24с01730 0.0 1002113
09:00+29юв21540 0.0 1003671
12:00+32ю53460 0.0 10021280
15:00+33ююв65440 0.0 10021175
18:00+31юв44451 0.0 10021211
21:00+27в22671 0.0 1004371
8 августа, пн
пн800:00+25ссв12750 0.0 1004202
03:00+25ссз11703 0.0 1003162
06:00+24вюв11783 0.0 1004175
09:00+28вюв11637 0.0 1006730
12:00+32ю53480 0.0 10051318
15:00+32ю65500 0.0 10051043
18:00+29ю55585 0.0 10051056
21:00+26юв11701 0.0 1007452
9 августа, вт
вт900:00+25с22750 0.0 1007284
03:00+25зюз11740 0.0 1005208
06:00+24вюв12819 0.0 1006218
09:00+28юв116412 0.0 1006723
12:00+32ю53480 0.0 10051302
15:00+32ю65500 0.0 10051103
18:00+30ююв545917 0.0 10051163
21:00+26юв227315 0.0 1006417
10 августа, ср
ср1000:00+25ссв227912 0.0 1006258
03:00+25ссв11790 0.0 1004178
06:00+24в11790 0.0 1004159
09:00+29ююв11590 0.0 1004674
12:00+32ююв53460 0.0 10041287
15:00+33ююв65480 0.0 10031256
18:00+31ююв43567 0.0 10031176
21:00+27вюв11722 0.1 1004373
11 августа, чт
чт1100:00+26с127511 0.1 1004192
03:00+26сз116413 0.1 100392
06:00+25зсз116231 0.0 100385
09:00+30ю11483 0.0 1005745
12:00+34ю43381 0.0 10041552
15:00+33ю55420 0.0 10041014
18:00+31ююв43530 0.0 10041003
21:00+28ююв12692 0.2 1005296